Location: Observatory Park - Geauga Park District
(41.5832°N, 81.0716°W)
Time: 21:12:37
(UTC-04:00)

Envisat - Pass Details

Date: 03 October 2021
Orbit: 764 x 766 km, 98.2° (Epoch: 17 October)

Event Time Altitude Azimuth Distance (km) Brightness Sun altitude
Rises 06:40:24 0° 12° (NNE) 3,237 6.4 -8.9°
Reaches altitude 10° 06:42:42 10° 11° (NNE) 2,306 5.7 -8.5°
Maximum altitude 06:47:48 84° 285° (WNW) 773 3.0 -7.5°
Drops below altitude 10° 06:52:51 10° 197° (SSW) 2,290 5.3 -6.6°
Sets 06:55:08 0° 197° (SSW) 3,212 6.0 -6.1°
